EHI
0 0 0 0 0 0 0 0 0 0 0 0 0 0 0 0 0 0 0 0 0 0 0 0 0 0 0 0 0 0 0 0 0 0 0 0 0 0 0 0 0 0 0 0
0 0 0 0 0 0 0 0 0 0 0 0 0 0 0 0 0 0 0 0 0 0 0 0 0 0 0 0 0 0 0 0 0 0 0 0 0 0 0 0 0 0 0 0
0 0 0 0 0 0 0 0 0 0 0 0 0 0 0 0 0 0 0 0 0 0 0 0 0 0 0 0 0 0 0 0 0 0 0 0 0 0 0 0 0 0 0 0
0 0 0 0 0 0 0 0 0 0 0 0 0 0 0 0 0 0 0 0 0 0 0 0 0 0 0 0 0 0 0 0 0 0 0 0 0 0 0 0 0 0 0 0
0 0 0 0 0 0 0 0 0 0 0 0 0 0 0 0 0 0 0 0 0 0 0 0 0 0 0 0 0 0 0 0 0 0 0 0 0 0 0 0 0 0 0 0
0 0 0 0 0 0 0 0 0 0 0 0 0 0 0 0 0 0 0 0 0 0 0 0 0 0 0 0 0 0 0 0 0 0 0 0 0 0 0 0 0 0 0 0
0 0 0 0 0 0 0 0 0 0 0 0 0 0 0 0 0 0 0 0 0 1 1 1 0 0 0 0 0 0 0 0 0 0 0 0 0 0 0 0 0 0 0 0
0 0 0 0 0 0 0 0 0 0 0 0 0 0 0 0 0 0 0 0 0 1 2 1 0 0 0 0 0 0 0 0 0 0 0 0 0 0 0 0 0 0 0 0
0 0 0 0 0 0 0 0 0 0 0 0 0 0 0 0 0 0 0 0 0 1 1 0 0 0 0 0 0 0 0 0 0 0 0 0 0 0 0 0 0 0 0 0
0 0 0 0 0 0 0 0 0 0 0 0 0 0 0 0 0 0 0 0 0 0 0 0 0 0 0 0 0 0 0 0 0 0 0 0 0 0 0 0 0 0 0 0
0 0 0 0 0 0 0 0 0 0 0 0 0 0 0 0 0 0 0 0 0 0 0 0 0 0 0 0 0 0 0 0 0 0 0 0 0 0 0 0 0 0 0 0
0 0 0 0 0 0 0 0 0 0 0 0 0 0 0 0 0 0 0 0 0 0 0 0 0 0 0 0 0 0 0 0 0 0 0 0 0 0 0 0 0 0 0 0
0 0 0 0 0 0 0 0 0 0 0 0 0 0 0 0 0 0 0 0 0 0 0 0 0 0 0 0 0 0 0 0 0 0 0 0 0 0 0 0 0 0 0 0
0 0 0 0 0 0 0 0 0 0 0 0 0 0 0 0 0 0 0 0 0 0 0 0 0 0 0 0 0 0 0 0 0 0 0 0 0 0 0 0 0 0 0 0
0 0 0 0 0 0 0 0 0 0 0 0 0 0 0 0 0 0 0 0 0 0 0 0 0 0 0 0 0 0 0 0 0 0 0 0 0 0 0 0 0 0 0 0
0 0 0 0 0 0 0 0 0 0 0 0 0 0 0 0 0 0 0 0 0 0 0 0 0 0 0 0 0 0 0 0 0 0 0 0 0 0 0 0 0 0 0 0
0 0 0 0 0 0 0 0 0 0 0 0 0 0 0 0 0 0 0 0 0 0 0 0 0 0 0 0 0 0 0 0 0 0 0 0 0 0 0 0 0 0 0 0
0 0 0 0 0 0 0 0 0 0 0 0 0 0 0 0 0 0 0 0 0 0 0 0 0 0 0 0 0 0 0 0 0 0 0 0 0 0 0 0 0 0 0 0
0 0 0 0 0 0 0 0 0 0 0 0 0 0 0 0 0 0 0 0 0 0 0 0 0 0 0 0 0 0 0 0 0 0 0 0 0 0 0 0 0 0 0 0
0 0 0 0 0 0 0 0 0 0 0 0 0 0 0 0 0 0 0 0 0 0 0 0 0 0 0 0 0 0 0 0 0 0 0 0 0 0 0 0 0 0 0 0
0 0 0 0 0 0 0 0 0 0 0 0 0 0 0 0 0 0 0 0 0 0 0 0 0 0 0 0 0 0 0 0 0 0 0 0 0 0 0 0 0 0 0 0
0 0 0 0 0 0 0 0 0 0 0 0 0 0 0 0 0 0 0 0 0 0 0 0 0 0 0 0 0 0 0 0 0 0 0 0 0 0 0 0 0 0 0 0
0 0 0 0 0 0 0 0 0 0 0 0 0 0 0 0 0 0 0 0 0 0 0 0 0 0 0 0 0 0 0 0 0 0 0 0 0 0 0 0 0 0 0 0
0 0 0 0 0 0 0 0 0 0 0 0 0 0 0 0 0 0 0 0 0 0 0 0 0 0 0 0 0 0 0 0 0 0 0 0 0 0 0 0 0 0 0 0
0 0 0 0 0 0 0 0 0 0 0 0 0 0 0 0 0 0 0 0 0 0 0 0 0 0 0 0 0 0 0 0 0 0 0 0 0 0 0 0 0 0 0 0
0 0 0 0 0 0 0 0 0 0 0 0 0 0 0 0 0 0 0 0 0 0 0 0 0 0 0 0 0 0 0 0 0 0 0 0 0 0 0 0 0 0 0 0
Wind_Speed
1 3 1 4 5 4 3 3 2 2 2 2 3 3 6 7 7 7 6 6 6 6 5 5 7 7 6 6 6 5 6 4 4 3 3 3 2 2 2 3 4 4 4 4
3 1 5 3 2 2 3 3 1 0 1 2 2 3 5 7 9 9 9 8 8 7 5 6 6 6 6 6 6 5 6 5 4 3 3 2 2 1 1 2 3 4 4 4
4 4 3 2 1 3 1 3 4 2 0 1 2 1 2 4 5 7 8 8 8 10 9 8 7 6 6 6 6 6 5 5 4 5 4 4 3 3 3 3 2 3 4 4
1 2 1 2 1 2 1 2 4 4 3 1 2 1 5 5 5 8 9 8 9 9 9 9 9 7 7 6 5 6 6 5 5 5 6 5 3 2 1 1 1 2 3 4
1 1 2 1 1 2 3 2 2 2 2 1 1 2 5 3 6 10 10 10 11 10 11 11 10 9 7 6 6 6 6 5 5 5 6 6 4 2 1 1 2 2 3 3
2 1 2 2 1 2 3 4 4 4 3 1 3 3 5 5 9 8 9 10 10 10 11 10 8 8 6 6 6 6 6 5 5 5 6 6 6 4 4 2 2 1 1 2
1 1 1 2 2 2 4 5 3 3 2 4 2 2 6 7 8 9 10 10 9 10 11 10 9 8 7 7 7 7 7 5 5 5 5 6 6 6 5 4 3 2 1 1
2 2 3 2 4 3 3 6 5 3 2 3 1 3 6 4 5 6 8 9 8 9 10 11 11 10 9 9 8 8 7 6 6 6 5 5 5 4 3 4 3 3 2 1
4 3 3 3 3 5 3 2 4 4 0 1 3 3 4 2 3 4 6 8 8 9 10 10 10 9 10 10 9 9 8 7 6 6 5 5 5 4 4 4 3 2 2 2
5 2 3 2 2 1 4 5 4 3 2 1 3 2 3 3 3 4 6 8 8 8 9 9 9 9 9 9 8 8 8 8 6 6 6 5 5 5 4 4 4 3 3 2
4 3 1 0 3 4 2 2 4 3 3 3 2 5 6 8 7 7 8 9 9 10 10 10 9 9 9 7 8 8 7 6 6 6 5 5 5 5 5 4 4 4 3 3
4 5 2 4 4 4 4 4 6 4 2 3 2 6 5 7 6 7 7 7 8 9 10 10 9 8 8 8 8 8 8 7 7 6 6 5 5 5 5 4 4 4 4 3
4 5 2 3 4 2 2 3 5 5 4 3 3 6 3 3 4 5 6 6 6 7 8 8 8 8 8 9 8 8 7 7 7 7 6 6 5 5 5 5 4 4 4 3
5 4 5 6 6 4 4 4 4 5 3 3 5 5 4 3 4 4 5 6 7 7 8 9 8 8 8 8 8 8 7 7 7 7 7 7 6 6 6 5 5 5 5 4
4 3 3 4 5 3 5 6 6 6 7 6 6 5 6 6 6 7 6 6 7 7 8 10 9 8 8 8 8 8 7 7 7 7 7 7 6 5 5 5 5 4 4 5
3 2 1 2 3 3 4 6 6 6 5 5 4 5 5 4 3 4 5 7 7 8 9 9 9 9 9 9 9 8 8 8 8 8 8 7 6 6 6 6 5 5 4 4
2 3 2 2 3 2 4 6 7 6 5 6 6 7 3 3 5 7 7 7 8 8 8 9 9 9 10 10 9 10 9 8 8 8 7 7 7 6 6 6 6 5 5 4
6 4 2 1 1 4 7 4 5 5 5 5 5 5 6 7 6 5 6 7 7 7 8 8 8 8 8 8 8 8 8 8 8 7 7 7 7 7 6 6 6 5 4 4
6 6 3 2 2 4 5 3 3 4 3 3 5 5 4 5 4 1 2 5 7 7 7 7 7 7 7 7 8 8 8 8 7 8 8 8 8 7 7 7 6 5 4 4
4 5 4 3 3 5 6 5 2 4 2 4 4 7 6 6 4 4 4 4 4 4 4 5 4 5 6 6 7 8 8 8 8 8 8 7 7 8 8 8 6 4 4 4
3 2 4 4 3 7 7 4 2 4 7 4 4 6 6 5 6 5 5 4 5 5 4 5 5 5 4 5 7 8 7 7 7 6 6 6 7 7 7 6 4 4 4 4
6 5 5 4 4 8 5 2 5 7 4 3 3 4 5 4 4 4 5 5 6 5 4 5 6 4 3 5 7 7 6 6 5 5 6 6 6 6 6 6 4 4 5 4
5 7 6 7 7 6 4 5 4 4 4 3 4 4 6 6 4 4 5 5 5 6 5 4 6 5 3 4 6 7 5 5 6 6 5 5 5 4 5 6 5 4 4 3
3 2 3 2 5 4 3 1 1 2 3 4 5 6 6 6 6 5 5 5 5 4 5 5 6 5 3 3 4 5 4 6 6 6 5 4 5 4 4 4 4 4 4 4
3 2 2 2 3 2 3 1 1 2 2 4 4 5 6 7 6 6 5 5 4 4 4 5 6 5 4 3 3 3 4 6 6 5 4 4 4 4 3 3 2 4 4 5
4 4 5 5 6 4 4 3 3 4 4 4 5 4 4 6 7 6 5 4 5 5 5 5 5 5 4 4 4 3 4 6 7 5 4 3 3 3 3 3 2 3 3 4
Wind_Direction
77 80 176 209 196 188 169 160 164 205 205 134 161 176 185 182 173 178 180 184 187 194 189 158 152 147 141 136 135 133 130 129 117 103 97 88 72 48 41 45 52 56 58 65
51 251 226 211 203 134 130 128 118 217 173 143 180 221 198 189 191 189 187 190 189 190 175 160 154 150 149 147 146 143 141 138 131 127 129 129 122 89 61 33 40 46 59 66
167 229 206 161 128 119 118 162 175 181 62 73 118 325 228 212 198 200 197 195 192 184 177 170 161 156 150 154 160 155 150 140 131 122 105 88 65 47 36 30 26 24 57 67
199 251 126 111 160 147 212 200 161 145 123 234 170 227 259 213 208 212 207 199 198 187 175 172 166 159 162 168 158 148 148 140 134 128 124 123 121 126 171 162 60 35 51 63
254 172 140 161 190 140 183 134 115 124 125 56 227 164 271 204 214 218 208 199 196 186 178 176 172 168 167 161 153 151 147 141 139 135 134 128 127 142 135 95 75 47 34 47
237 222 154 160 139 138 128 64 46 52 69 315 229 175 260 217 211 204 197 196 193 185 180 175 169 158 158 156 150 150 147 145 143 141 138 137 141 140 128 119 106 63 32 29
315 304 183 117 87 44 94 86 48 14 12 258 246 185 244 231 208 193 185 191 191 179 171 168 166 164 165 164 161 158 154 156 154 149 148 151 153 150 153 158 155 141 92 50
177 266 232 181 164 170 167 139 151 178 218 279 289 234 257 250 196 180 174 176 178 176 174 174 175 173 173 173 167 163 164 164 161 159 161 159 156 151 158 166 161 163 168 174
174 236 252 206 169 141 138 165 169 138 159 281 276 289 312 44 100 142 158 162 172 180 181 179 176 175 175 176 174 172 170 168 169 169 162 160 160 158 162 162 156 160 170 164
155 188 255 219 91 95 157 152 103 113 142 270 285 261 234 211 188 175 169 174 180 179 181 177 176 178 180 178 172 171 173 173 171 169 169 165 167 165 164 153 154 162 165 148
140 148 271 105 180 191 162 147 128 135 160 161 251 270 225 199 191 184 186 182 184 183 181 177 177 179 179 173 170 173 177 170 167 170 168 160 165 163 155 153 163 162 155 152
152 129 194 242 249 197 176 181 150 149 195 171 180 269 253 194 190 181 186 187 184 185 179 174 173 173 174 177 177 179 178 175 176 174 166 168 166 160 157 165 170 162 156 154
134 116 101 345 328 320 220 200 163 140 133 159 179 263 293 175 177 183 182 184 187 180 172 169 170 175 179 181 181 180 180 182 179 170 165 165 168 168 172 174 171 162 154 144
116 122 162 190 218 212 226 222 174 145 161 197 216 242 275 226 192 185 179 181 181 176 172 171 175 180 181 181 182 182 184 181 175 169 169 174 179 177 177 170 164 162 155 149
99 146 203 230 245 223 221 221 202 187 189 192 221 220 232 216 199 187 179 176 168 171 175 178 181 182 182 182 183 183 184 180 174 170 176 184 181 173 165 160 163 159 155 158
99 141 157 293 279 259 248 234 210 205 198 200 213 246 232 193 166 166 170 165 165 175 181 184 185 184 186 187 186 182 183 181 172 174 182 180 173 167 166 166 163 156 157 157
127 121 102 270 295 341 257 225 205 203 196 181 206 226 185 157 172 180 183 172 175 183 185 186 188 190 191 190 185 184 185 177 173 178 178 174 174 172 172 166 159 164 168 159
148 132 132 221 28 232 251 245 193 190 221 206 199 195 180 180 183 183 175 174 180 185 187 189 190 192 191 186 183 180 172 171 175 177 177 176 172 172 169 163 169 174 166 163
156 144 137 145 201 273 287 265 177 168 240 219 184 179 172 148 102 18 211 180 182 185 184 186 188 185 178 179 178 167 167 170 173 180 183 180 173 171 170 174 180 176 166 169
122 122 135 148 173 231 246 253 222 130 251 262 182 175 169 136 133 233 223 181 165 164 166 164 158 148 158 172 162 157 167 171 184 188 186 178 173 173 178 185 182 171 168 176
138 122 156 170 206 258 251 257 113 149 221 238 181 169 170 173 189 195 175 161 155 150 146 143 137 142 162 162 150 155 163 182 190 177 167 168 173 177 180 177 169 159 161 159
171 167 183 167 193 246 251 155 176 210 208 181 156 149 146 147 144 144 145 143 137 130 129 133 133 137 138 142 144 148 170 183 162 152 157 167 170 172 166 158 159 158 156 157
188 186 182 187 212 236 227 213 217 172 167 168 147 143 135 133 141 143 138 136 136 132 130 129 128 123 113 132 144 151 174 157 145 144 156 162 161 161 155 156 158 153 155 162
250 169 151 224 258 262 260 231 68 162 169 162 147 144 136 137 141 135 132 131 129 125 128 124 119 118 121 137 147 157 156 144 139 143 152 153 150 148 145 148 153 158 167 169
217 156 154 232 272 345 336 312 128 81 103 120 121 134 141 136 136 135 135 137 133 124 121 121 122 123 129 129 131 135 139 139 134 133 132 131 134 142 140 134 146 163 177 176
209 173 168 211 219 193 237 242 149 120 118 124 120 110 117 132 139 134 132 132 129 128 123 117 114 115 116 111 106 107 125 134 134 129 128 130 133 132 132 127 90 57 97 132